Simultaneous Nadir Overpasses (SNOs) Predictions

Prediction of SNOs between METOP-B and TERRA Satellite Orbit:

Table of predicted SNOs for the next 14.0 days since TLE Epoch: 8/2/2025
Index Date (METOP-B) Time (METOP-B) Lat,Lon (METOP-B) SZA (METOP-B ) Date (TERRA) Time (TERRA) Lat,Lon (TERRA) SZA (TERRA ) Distance(km) Time Diff (sec)
1 08/02/2025 13:06:37 77.43, -18.53 59.78 08/02/2025 13:07:21 77.44, -18.48 59.78 1.32 44
2 08/02/2025 13:57:05 -77.99, 151.39 119.68 08/02/2025 13:56:28 -77.99, 151.49 119.67 2.51 37
3 08/05/2025 02:46:10 -77.78, -41.91 119.21 08/05/2025 02:46:10 -77.78, -41.88 119.21 0.89 0
4 08/07/2025 15:35:14 -77.60, 125.00 118.68 08/07/2025 15:35:51 -77.60, 124.91 118.69 2.20 37
5 08/07/2025 16:25:44 78.04, -65.58 61.76 08/07/2025 16:25:00 78.05, -65.52 61.77 1.71 44
6 08/10/2025 04:24:23 -77.21, -69.02 118.32 08/10/2025 04:25:36 -77.21, -69.04 118.33 0.65 73
7 08/10/2025 05:14:52 77.69, 100.45 62.15 08/10/2025 05:14:44 77.70, 100.57 62.16 2.89 8
8 08/12/2025 18:03:58 77.42, -93.06 62.65 08/12/2025 18:04:26 77.43, -92.97 62.65 2.55 28
9 08/12/2025 18:54:23 -78.11, 77.53 116.68 08/12/2025 18:53:31 -78.11, 77.51 116.68 0.45 52
10 08/15/2025 06:53:03 77.14, 73.45 63.16 08/15/2025 06:54:07 77.14, 73.48 63.16 0.68 64



Historial Predications of SNOs between METOP-B and TERRA
